Hourly Data Report for July 20, 2021

CAMPBELL RIVER A
BRITISH COLUMBIA
Current Station Operator: NAVCAN

49°57'07.000" N
125°16'23.000" W
108.80 m
1021270
YBL

Download Data

Hourly Data (July 2021)
Hourly Data Report for July 20, 2021
TIME
LST
Temp Definition
°C
Dew Point Definition
°C
Rel Hum Definition
%
Precip. Amount Definition
mm

Wind Dir Definition
10's deg

Wind Spd Definition
km/h
Visibility Definition
km
Stn Press Definition
kPa
Hmdx Definition


Wind Chill Definition


Weather Definition


00:00 15.2 12.3 83 LegendMM 28 9 LegendMM 100.50     LegendNANA
01:00 13.6 11.6 88 LegendMM 27 7 LegendMM 100.52     LegendNANA
02:00 11.5 10.6 94 LegendMM 24 2 LegendMM 100.55     LegendNANA
03:00 10.7 9.9 94 LegendMM 23 2 LegendMM 100.57     LegendNANA
04:00 9.1 8.4 95 LegendMM 32 2 LegendMM 100.61     LegendNANA
05:00 8.5 8.1 97 LegendMM 24 4 LegendMM 100.65     LegendNANA
06:00 11.1 9.6 91 LegendMM 31 6 LegendMM 100.69     LegendNANA
07:00 17.1 10.9 66 LegendMM 27 4 LegendMM 100.71     LegendNANA
08:00 19.0 10.1 56 LegendMM 18 3 LegendMM 100.72     LegendNANA
09:00 20.4 10.1 51 LegendMM 11 9 LegendMM 100.72     LegendNANA
10:00 21.1 8.4 44 LegendMM 14 17 LegendMM 100.69     LegendNANA
11:00 21.7 8.5 42 LegendMM 10 17 LegendMM 100.68     LegendNANA
12:00 22.4 8.2 40 LegendMM 10 16 LegendMM 100.68     LegendNANA
13:00 22.8 9.4 42 LegendMM 9 13 LegendMM 100.65     LegendNANA
14:00 23.2 9.0 40 LegendMM 8 14 LegendMM 100.62     LegendNANA
15:00 22.9 9.3 41 LegendMM 12 19 LegendMM 100.57     LegendNANA
16:00 22.2 11.0 49 LegendMM 8 9 LegendMM 100.54     LegendNANA
17:00 21.4 11.7 53 LegendMM 10 7 LegendMM 100.50     LegendNANA
18:00 20.1 11.2 56 LegendMM 31 23 LegendMM 100.48     LegendNANA
19:00 17.3 11.7 69 LegendMM 31 13 LegendMM 100.48     LegendNANA
20:00 16.4 11.5 73 LegendMM 31 21 LegendMM 100.50     LegendNANA
21:00 14.9 10.6 75 LegendMM 31 17 LegendMM 100.53     LegendNANA
22:00 14.6 10.0 74 LegendMM 31 18 LegendMM 100.52     LegendNANA
23:00 15.1 9.3 68 LegendMM 31 18 LegendMM 100.50     LegendNANA

Notes on Data Quality.

Legend

  • E = Estimated
  • M = Missing
  • NA = Not Available*
  • [empty] = Indicates an unobserved value
Date modified: